Zurück zum Katalog

FENGYUN 1C DEB

AktivSSO
NORAD 31456·DEBRIS·🇨🇳 China

Gestartet May 10, 1999 von Taiyuan Satellite Launch Center

Loading…

Nächste Überflüge (nächste 24 Stunden)

TLE

AktuellSource: Space-Track

Epoche: Sep 14, 2026, 13:31 UTC

1 31456U 99025BUU 26257.56332941  .00001738  00000-0  51062-3 0  9995
2 31456  98.5877   6.8876 0067088 204.6854 155.1121 14.43773890 14375

Verfolge FENGYUN 1C DEB in Echtzeit mit AllMySat

Download on the App Store